SENTINEL-3B (43437 NORAD) Tracking and Keplerian Element Data

This shows tracking and keplerian element data for the satellite.

Feedback or suggestion? Click here.




ElementValue
Catalog43437
NameSENTINEL-3B
Epoch Orbit1182
Epoch Day198.76139927
Epoch Year2018
RAAN265.4182
Inclination98.622
Eccentricity0.0001218
Argument of Perigee98.1232
Mean Anonmoly262.0087
Mean Motion14.26738538
Decay Rate-4E-08
L11 43437U 18039A 18198.76139927 -.00000004 00000-0 16248-4 0 9993
L22 43437 98.6220 265.4182 0001218 98.1232 262.0087 14.26738538 11829

Live tracking and technical data element details for SENTINEL-3B (NORAD 43437). SENTINEL-3B can be tracked NOW for your location showing map with azimuth and elevation plus other details from your city location.

Track the satellite on the map from your city or location and see movement details for azimuth, elevation, latitude, longitude, range, height, and movement on the map or in text.







IsCatalogInMostPopularTable: catalog: 43437, numindb: 84
Update: records affected: 1



GetName: 43437 SENTINEL-3B

Hit Count: updated at: Sat, 21 Jul 2018 07:38:05 GMT